COSMOS 1579

导读

COSMOS 1579(宇宙1579)是独联体(CIS,继承自苏联航天体系)发射的宇宙系列卫星,于1984年6月29日08:00发射入轨。作为苏联/俄罗斯“宇宙号”大型卫星家族的一员,该系列多以军用任务、航天技术试验为主,COSMOS 1579延续了这一序列的研发定位,服役期间完成了既定太空任务,是冷战时期苏联航天活动的典型产物。

基本信息
目录编号:
15085
目录名称:
COSMOS 1579
国际标识:
1984-069A
轨道中心:
EARTH
卫星名称:
COSMOS 1579
卫星全名:
--
卫星状态:
在轨 (已飞行15326 天)
发射日期:
1984-06-29 UTC
国别 :
俄罗斯(独联体) (CIS)
星等 :
--
轨道信息
数据来源 国际轨道数据 AOE轨道数据
星历时间 2026-06-15T04:05:17+0800
7小时前
查看轨道信息
2026-06-15T03:00:00+0800
9小时前
查看轨道信息
半长轴 7320.045km 7320.043km
偏心率 0.0040971 0.0040786
轨道倾角 65.051° 65.052°
近地点辐角 14.616° 14.536°
升交点赤经 90.150° 90.269°
平近点角 345.608° 119.475°
近地点 911.917km 912.05km
远地点 971.899km 971.762km
周期 103.880分钟 103.880分钟
每日圈数 13.8622 13.862207
详细信息
使用方式:
暂无
2D轨道图
3D轨道图
轨道高度分析图
轨道倾角分析图
轨道综合分析图
查看轨道综合分析图